User: anonymous   Login
Location: Unspecified
(0.0000°N, 0.0000°E)
Time: 08:41:28
(UTC+01:00)
Language:

Timation 2 Rocket - Orbit

View from above orbital plane
View from above orbital plane
View from above satellite
View from above satellite

Ground track
Ground track

The orbit data is extracted from the following two-line orbital elements,

1 04159U 69082AB  17056.49698008 -.00000045  00000-0  57390-5 0  9996
2 04159  69.9636  26.4340 0118091 229.7469 129.3250 13.72368881372751
Epoch (UTC): 25 February 2017 11:55:39
Eccentricity: 0.0118091
inclination: 69.9636°
perigee height: 904 km
apogee height: 1078 km
right ascension of ascending node: 26.4340°
argument of perigee: 229.7469°
revolutions per day: 13.72368881
mean anomaly at epoch: 129.3250°
orbit number at epoch: 37275

The dashed part of the orbit path shows where the satellite is in the earth's shadow,  

DLR